Tracking 35331 objects as of 16-Sep-2026
HD Live streaming from Space Station
objects crossing your sky now

THOR ABLESTAR DEB

Track THOR ABLESTAR DEB now!
10-day predictions


NORAD ID: 643
Int'l Code: 1961-015GU
Launch date: June 29, 1961
Source: United States (US)
Launch site: AIR FORCE EASTERN TEST RANGE (AFETR)

Note: This is SATELLITE DEBRIS
Your satellite tracking list
Your tracking list is empty




NASA's NSSDC Master Catalog

Two Line Element Set (TLE):
1 00643U 61015GU  26258.88533834  .00000847  00000-0  13076-2 0  9999
2 00643  66.3699 211.4349 0322374 346.1026  13.1300 13.37001100122123
Source of the keplerian elements: AFSPC